Location: Coroe?ti
(46.3833°N, 22.8000°E)
Time: 10:26:42
(UTC+00:00)

Daily predictions for brighter satellites

Satellite Brightness Start Highest point End
(mag) Time Altitude Azimuth Time Altitude Azimuth Time Altitude Azimuth
Gblst 52 Del rocket 4.3 18:38:22 10° SW 18:44:03 79° SSE 18:50:28 10° ENE
Helios 1A Rocket 4.0 18:40:26 10° S 18:44:18 45° W 18:48:13 10° NNW
ERS-2 2.1 18:42:32 10° NNE 18:46:11 63° ESE 18:49:46 10° S
Cosmos 2279 Rocket 4.1 18:40:15 10° N 18:46:25 65° ENE 18:52:33 10° SSE
Cosmos 1833 Rocket 2.9 18:41:18 10° S 18:46:45 52° ESE 18:52:13 10° NE
Cosmos 2221 3.1 18:43:07 10° N 18:47:12 40° ENE 18:51:16 10° SSE
ISS -2.0 18:44:15 10° WNW 18:47:20 32° N 18:50:26 10° ENE
Gbstr 26 Del rocket 4.1 18:45:21 10° WNW 18:48:50 36° N 18:52:27 10° ENE
NOSS 3-4 (A) 3.3 18:43:39 10° SSW 18:49:26 75° SE 18:55:40 10° NE
NOSS 3-4 (C) 3.3 18:43:46 10° SSW 18:49:32 74° SE 18:55:46 10° NE
SPOT 3 Rocket 3.8 18:47:21 10° SSE 18:52:29 59° ENE 18:57:37 10° N
USA 307 4.0 18:48:47 10° WNW 18:52:43 37° SW 18:56:38 10° SSE
Terra 3.7 18:51:27 10° E 18:54:18 16° ENE 18:57:09 10° NNE
ATLAS 2AS CENTAUR R/B 3.2 18:50:51 10° SSW 18:58:27 54° ESE 19:05:58 10° NE
Cosmos 1242 Rocket 2.5 18:55:51 10° NNW 18:59:29 88° W 19:03:03 10° S
Cosmos 1125 Rocket 4.3 18:54:44 10° NNW 18:59:54 52° WSW 19:05:01 10° S
Cosmos 1953 Rocket 4.1 19:01:10 10° SSW 19:05:37 66° W 19:10:07 10° N
IGS 5A 3.5 19:03:05 10° S 19:07:14 82° WSW 19:11:25 10° NNW
USA 276 3.2 19:04:19 10° W 19:07:23 45° N 19:10:26 10° ENE
COSMOS 2406 3.2 19:02:45 10° SSW 19:08:23 71° ESE 19:14:05 10° NNE
Cosmos 2369 3.9 19:02:48 10° NNW 19:08:26 62° ENE 19:13:36 12° SE
USA 308 4.4 19:05:50 10° WNW 19:09:28 28° SW 19:13:04 10° SSE
Cosmos 1606 2.9 19:09:19 10° N 19:13:01 51° ENE 19:16:16 13° SSE
USA 267 3.9 19:11:00 10° ENE 19:16:43 31° SE 19:22:23 10° S
ATLAS 3B R/B 3.3 19:10:18 10° NNW 19:17:10 51° NE 19:23:48 12° ESE
Nadezhda 4 Rocket 4.2 19:11:16 10° SSE 19:17:10 51° E 19:23:09 10° NNE
CENTAUR R/B 4.3 19:11:04 10° NW 19:18:36 39° WSW 19:26:37 10° S
Landsat 7 4.0 19:14:31 10° S 19:19:16 74° WSW 19:24:03 10° NNW
ERBS 2.5 19:16:30 10° NW 19:19:41 57° NE 19:22:06 16° ESE
Cosmos 1980 Rocket 2.5 19:14:51 10° NNW 19:20:24 57° ENE 19:25:02 15° SE
Cosmos 2151 3.9 19:21:09 15° SE 19:23:58 30° E 19:27:42 10° NNE
ERS-1 Rocket 3.7 19:20:53 14° SE 19:24:46 40° ENE 19:29:27 10° N
GP-B 4.2 19:21:08 10° NNE 19:25:01 28° E 19:27:39 16° SE
Spot 2 Rocket 3.7 19:20:48 13° SSE 19:25:11 57° ENE 19:30:13 10° N
Cosmos 1842 Rocket 3.7 19:21:37 10° N 19:26:08 84° W 19:30:36 10° S
Cosmos 2322 Rocket 4.1 19:23:07 10° N 19:27:08 19° NE 19:31:06 10° E
Cosmos 2058 3.6 19:28:00 10° SSW 19:32:05 57° WNW 19:36:15 10° N
Cosmos 1538 Rocket 4.4 19:32:45 10° S 19:37:39 42° ESE 19:42:32 10° NE
Cosmos 1825 4.2 19:35:57 10° SW 19:39:15 29° WNW 19:42:34 10° NNW
Cosmos 1076 Rocket 3.4 19:36:08 10° S 19:40:27 78° E 19:44:50 10° NNE
Cosmos 2098 Rocket 2.0 19:41:30 17° S 19:43:40 86° E 19:46:54 10° N
Resurs 01 Rocket 3.0 19:39:47 10° SSW 19:43:51 35° W 19:47:57 10° NNW
Meteor 2-8 Rocket 4.4 19:38:27 10° N 19:44:40 86° E 19:49:55 15° S
SPOT 1/Viking Rocket 4.0 19:45:54 11° S 19:50:47 59° W 19:55:57 10° NNW
USA 234 4.0 19:45:13 10° E 19:51:27 49° NNE 19:57:43 10° NW
SL-16 R/B 3.3 19:47:22 10° NNW 19:52:28 33° NE 19:56:17 16° ESE
BREEZE-M DEB (TANK) 3.4 19:45:51 10° W 19:54:53 62° N 19:57:56 10° ENE
USA 245 4.5 19:54:07 13° S 19:59:13 59° WSW 20:03:58 10° NNW
RESURS DK-1 2.3 19:57:21 10° SSW 20:01:31 90° NNW 20:05:42 10° NNE
BREEZE-M DEB (TANK) 2.7 20:00:01 10° WNW 20:03:11 75° SSW 20:09:03 18° ESE
Cosmos 44 Rocket 3.8 19:58:11 10° SW 20:03:22 69° NW 20:08:36 10° NNE
Cosmos 1271 Rocket 3.1 20:02:07 10° N 20:06:01 53° ENE 20:07:34 32° SE
SPOT 5 2.6 20:07:14 26° S 20:09:40 83° WSW 20:14:02 10° NNW
ARIANE 5 R/B 2.9 20:08:22 22° S 20:11:14 64° WSW 20:15:42 10° NNW
Meteor 1-26 Rocket 4.4 20:05:30 10° N 20:11:32 71° ENE 20:14:58 26° SSE
Cosmos 304 Rocket 4.0 20:07:25 10° NNW 20:12:11 60° ENE 20:14:26 30° SE
Cosmos 1933 3.3 20:11:53 10° N 20:15:58 86° W 20:17:47 32° S
Cosmos 1633 4.1 20:13:40 10° SW 20:16:58 33° WNW 20:20:17 10° N
Cosmos 1697 Rocket 4.2 20:13:16 10° NW 20:18:06 29° WSW 20:22:30 12° SSW
Cosmos 2195 Rocket 4.4 20:18:37 17° S 20:23:31 89° W 20:29:40 10° N
Cosmos 923 Rocket 4.3 20:22:07 29° SSE 20:24:25 48° ESE 20:29:33 10° NNE
ISS -3.2 20:21:15 10° WNW 20:24:35 55° NNE 20:25:51 32° E
Cosmos 2278 4.0 20:20:04 10° NNW 20:25:37 59° WSW 20:28:45 26° S
Cosmos 2082 Rocket 2.9 20:20:45 10° SW 20:26:15 56° WNW 20:31:51 10° NNE
Cosmos 371 Rocket 3.7 20:23:27 10° NNW 20:28:10 56° WSW 20:30:30 28° S
Terra 1.9 20:29:10 31° S 20:31:28 74° WSW 20:36:15 10° NNW
Cosmos 2333 Rocket 4.2 20:31:25 10° N 20:35:28 20° NE 20:39:29 10° E
Gbstr 26 Del rocket 3.3 20:32:20 10° WNW 20:36:05 55° NNE 20:38:22 24° E
Cosmos 1092 Rocket 4.2 20:30:54 14° SSW 20:36:15 70° W 20:42:33 10° N
BREEZE-M DEB (TANK) 4.1 20:32:13 10° WSW 20:36:40 90° E 20:55:58 10° ENE
Cosmos 2056 Rocket 4.5 20:31:40 10° N 20:36:42 38° ENE 20:39:04 25° ESE
Cosmos 1515 Rocket 4.4 20:36:47 10° N 20:40:55 36° ENE 20:41:57 32° ESE
Cosmos 2360 Rocket 3.2 20:37:59 10° NNW 20:43:10 36° NE 20:46:03 22° ESE
USA 276 2.9 20:40:50 10° WNW 20:43:55 48° N 20:44:46 36° ENE
Cosmos 1809 Rocket 4.4 20:44:40 30° S 20:47:57 79° E 20:54:08 10° NNE
ATLAS 2AS CENTAUR R/B 4.0 20:42:02 10° WSW 20:49:40 49° NW 20:57:03 10° NE
Cosmos 1862 3.5 20:49:37 48° ESE 20:49:55 50° E 20:53:48 10° NNE
ALOS 2 4.3 20:49:18 19° E 20:50:35 22° ENE 20:53:57 10° NNE
Cosmos 1766 Rocket 3.5 20:50:20 42° S 20:51:49 88° WNW 20:56:15 10° N
Meteor 2-3 Rocket 4.3 20:47:27 15° SSW 20:52:00 56° WNW 20:57:38 10° N
ERBS 4.5 20:53:18 10° W 20:54:49 16° WSW 20:54:49 16° WSW
Cosmos 2026 Rocket 4.4 20:51:04 18° SSW 20:55:55 62° WNW 21:02:12 10° N
Cosmos 1371 Rocket 4.3 20:52:26 10° NNW 20:57:46 60° ENE 20:59:38 38° SE
Cosmos 1812 2.5 20:54:52 10° N 20:58:45 84° E 20:59:11 69° SSE
Cosmos 2112 Rocket 4.0 20:57:39 42° SSE 20:59:16 62° ESE 21:04:30 10° NNE
Cosmos 1782 3.5 20:55:58 10° NNW 20:59:50 46° W 21:00:54 36° SW
USA 267 3.3 20:53:36 10° NE 21:00:11 85° NW 21:06:44 10° WSW
Cosmos 1680 Rocket 3.4 20:59:26 39° S 21:01:26 75° ESE 21:06:43 10° NNE
ERS-1 Rocket 4.5 21:00:53 18° SW 21:03:39 28° W 21:08:00 10° NW
Cosmos 1980 Rocket 3.8 20:59:35 10° NW 21:03:59 24° WSW 21:06:48 16° SW
Cosmos 1328 Rocket 3.6 21:00:21 10° NNW 21:04:48 73° W 21:05:51 50° SSW
ATLAS 3B R/B 3.4 21:01:10 10° NW 21:07:52 45° WSW 21:11:03 29° SSW
SL-27 R/B 4.0 21:09:41 27° ENE 21:09:41 27° ENE 21:11:52 10° NE
Cosmos 2322 Rocket 2.1 21:06:19 10° NNW 21:11:59 90° WSW 21:13:47 46° SSE
Meteor 2-21 Rocket 4.4 21:11:32 38° S 21:14:04 81° E 21:20:18 10° N
Cosmos 2315 Rocket 4.5 21:09:49 10° N 21:15:54 49° ENE 21:18:11 35° SE
Cosmos 1151 Rocket 3.9 21:12:06 10° NNW 21:16:12 41° W 21:17:20 34° SW
Meteor 2-6 Rocket 4.2 21:14:40 10° NNW 21:20:07 72° W 21:21:47 44° SSW
Okean 3 Rocket 4.5 21:20:47 30° SW 21:22:31 45° WNW 21:26:51 10° N
Cosmos 2237 4.1 21:25:10 10° NNW 21:30:54 85° WSW 21:32:28 50° SSE
Meteor 1-27 Rocket 3.8 21:25:45 10° N 21:31:21 69° ENE 21:32:53 47° SE
Cosmos 1553 Rocket 4.5 21:26:29 10° NNW 21:32:19 50° W 21:34:51 31° SW
COSMOS 2428 4.1 21:28:14 10° NNW 21:33:19 32° NE 21:36:24 19° E
USA 234 3.2 21:31:41 39° SE 21:34:17 73° SW 21:40:52 10° NW
Cosmos 1655 Rocket 4.0 21:33:14 40° SSW 21:35:45 84° W 21:42:11 10° N
SL-16 R/B 2.8 21:31:20 10° NW 21:36:44 46° WSW 21:38:08 38° SW
Cosmos 1500 Rocket 3.4 21:37:07 74° SE 21:37:23 78° E 21:41:49 10° NNE
Cosmos 1624 Rocket 4.0 21:34:51 10° NNW 21:40:02 69° WSW 21:41:01 55° SSW
Cosmos 2219 Rocket 3.1 21:35:09 10° NNW 21:40:26 40° NE 21:42:49 27° ESE
Cosmos 2266 Rocket 3.9 21:39:17 44° SSW 21:41:25 85° W 21:47:39 10° N
Cosmos 292 Rocket 3.7 21:39:05 10° NNW 21:43:52 78° ENE 21:44:32 64° SE
Spot 4 3.9 21:45:55 57° SSW 21:46:38 66° WSW 21:51:26 10° NNW
COSMOS 2455 3.3 21:52:01 39° ESE 21:52:27 40° ESE 21:58:01 10° NE
Cosmos 2228 Rocket 2.9 21:48:02 10° N 21:52:28 81° E 21:52:40 78° SE
Cosmos 1420 Rocket 4.0 21:50:01 10° NNW 21:55:23 77° WSW 21:56:17 60° S
Cosmos 1743 Rocket 3.6 21:54:56 65° WSW 21:55:23 71° W 21:59:52 10° N
ISS -1.1 21:58:16 10° WNW 21:58:48 13° W 21:58:48 13° W
Meteor 1-20 Rocket 4.2 22:05:26 55° SE 22:06:24 65° E 22:11:59 10° NNE
Cosmos 972 Rocket 4.0 22:07:27 60° S 22:08:24 77° ESE 22:13:34 10° NNE
Cosmos 1452 Rocket 3.5 22:04:35 10° NNW 22:09:52 76° ENE 22:10:51 58° SE
Cosmos 1515 4.1 22:07:21 10° N 22:10:39 55° NE 22:10:39 55° NE
Cosmos 1666 Rocket 4.1 22:12:16 45° E 22:12:16 45° E 22:16:23 10° NNE
Cosmos 1633 Rocket 3.9 22:12:50 37° E 22:12:50 37° E 22:16:46 10° NNE
NOSS 3-1 (C) 4.1 22:09:56 10° NW 22:17:25 85° NE 22:21:57 32° SE
Sich 1 2.9 22:17:56 89° SSE 22:17:58 89° ESE 22:22:22 10° N
NOSS 2-1 (E) 3.9 22:19:06 45° NNW 22:19:06 45° NNW 22:22:00 10° NNE
Cosmos 2056 Rocket 4.5 22:13:59 10° NW 22:18:45 33° W 22:19:23 32° WSW
Cosmos 2333 Rocket 2.1 22:14:51 10° NNW 22:20:32 89° WSW 22:21:43 58° SSE
Cosmos 1833 4.4 22:19:20 41° SW 22:21:21 68° WNW 22:27:09 10° NNE
ATLAS 5 CENTAUR R/B 3.3 22:16:49 10° NNW 22:21:56 41° NE 22:27:15 13° ESE
Nadezhda 2 Rocket 4.4 22:22:00 52° S 22:23:43 84° E 22:30:07 10° N
Okean 1 3.6 22:20:25 10° N 22:24:11 62° ENE 22:24:11 62° ENE
Geosat 4.0 22:25:11 57° SE 22:26:12 78° ENE 22:31:15 10° NNW
ALOS 2 3.3 22:26:42 42° W 22:26:42 42° W 22:30:51 10° NNW
Cosmos 2360 Rocket 2.8 22:21:59 10° NW 22:27:12 40° WSW 22:27:47 39° WSW
USA 229 DEB 4.1 22:21:26 10° NW 22:28:43 69° NE 22:33:46 23° SE
USA 229 4.1 22:21:32 10° NW 22:28:49 68° NE 22:33:55 23° SE
Meteor 1-25 Rocket 4.1 22:27:54 59° SSW 22:29:03 88° W 22:34:41 10° N
Cosmos 1862 Rocket 3.8 22:30:32 10° N 22:34:51 56° ENE 22:35:02 55° E
Cosmos 2322 3.7 22:30:18 10° NNW 22:36:01 73° WSW 22:37:00 59° S
Resurs 1-4 Rocket 4.3 22:34:17 10° ENE 22:36:28 12° E 22:38:04 11° ESE
Cosmos 1666 4.1 22:37:23 30° ENE 22:37:23 30° ENE 22:40:21 10° NNE
Lacrosse 5 4.1 22:42:01 12° ESE 22:42:01 12° ESE 22:42:54 10° E
Meteor 1-19 Rocket 4.1 22:35:31 10° NNW 22:41:15 86° W 22:42:21 60° S
Cosmos 1110 Rocket 4.1 22:36:52 10° NNW 22:42:13 75° ENE 22:43:21 55° SE
USA 267 4.4 22:36:44 10° NE 22:42:47 42° NNW 22:48:51 10° W
Cosmos 1244 Rocket 4.4 22:42:07 50° SSW 22:43:47 76° W 22:50:00 10° N
Meteor 1-14 Rocket 4.4 22:43:44 50° SE 22:44:44 58° E 22:50:13 10° NNE
Cosmos 1707 Rocket 3.6 22:40:50 10° NNW 22:45:02 63° W 22:45:02 63° W
NOSS 3-1 (A) 4.1 22:41:37 10° NW 22:49:08 84° NE 22:54:38 25° SE
Cosmos 2297 Rocket 3.4 22:49:53 27° ESE 22:50:36 28° ESE 22:55:22 10° NE
COSMOS 2487 3.6 22:52:30 38° NNW 22:52:30 38° NNW 22:55:07 10° N
Cosmos 1331 Rocket 3.9 22:47:19 10° NNW 22:52:36 82° ENE 22:53:34 60° SE
Cosmos 468 4.5 22:51:58 58° SW 22:52:55 75° WNW 22:58:09 10° NNE
Cosmos 2237 Rocket 3.0 22:48:55 10° NNW 22:54:24 46° ENE 22:57:31 24° ESE
Cosmos 2322 Rocket 4.2 22:52:23 10° WNW 22:55:10 14° W 22:55:35 14° WSW
Cosmos 2285 Rocket 4.2 22:51:34 10° NNW 22:57:40 53° WSW 22:58:54 46° SW
Cosmos 2227 Rocket 3.5 23:00:28 24° ESE 23:01:25 26° ESE 23:05:59 10° NE
Meteor 2-4 Rocket 3.7 23:04:28 10° NNW 23:10:27 86° W 23:12:00 52° S
EO 1 Del DPAF 3.5 23:07:50 10° NNE 23:11:08 60° ENE 23:11:08 60° ENE
Cosmos 2242 Rocket 4.2 23:07:44 10° N 23:12:01 48° ENE 23:12:44 43° ESE
ASTEX 1 4.4 23:12:11 31° ESE 23:13:45 40° ENE 23:18:19 10° N
CZ-2D R/B 3.6 23:09:36 10° NE 23:14:04 26° E 23:15:47 22° ESE
PSLV R/B 4.1 23:11:40 10° N 23:16:22 57° WNW 23:17:06 51° WSW
ADEOS II 4.4 23:14:56 10° ENE 23:17:28 13° E 23:20:00 10° ESE
SL-16 R/B 4.0 23:12:52 10° N 23:17:45 28° NE 23:22:36 10° ESE
COSMOS 2428 3.0 23:12:21 10° NW 23:17:48 48° WSW 23:18:23 47° SW
Cosmos 1500 4.1 23:19:16 40° WNW 23:19:16 40° WNW 23:22:42 10° N
Cosmos 1269 Rocket 4.2 23:20:05 51° SSE 23:20:59 59° ESE 23:26:11 10° NNE
Cosmos 2219 Rocket 2.9 23:19:16 10° NW 23:24:18 35° WSW 23:24:30 35° WSW
Meteor 1-5 Rocket 4.2 23:25:24 53° SSW 23:26:49 84° W 23:32:39 10° N
Meteor 2-17 Rocket 4.3 23:27:19 49° SSW 23:29:06 85° W 23:35:12 10° N
Aureole 2 Rocket 4.3 23:27:06 45° S 23:29:21 72° ESE 23:39:03 10° NNE
Thor Agena Rocket 4.4 23:26:54 10° N 23:31:36 39° WNW 23:32:59 32° WSW
Cosmos 1869 Rocket 4.2 23:34:00 41° ESE 23:34:47 45° E 23:39:05 10° NNE
COSMOS 2455 3.7 23:35:08 24° WSW 23:38:22 43° NW 23:44:06 10° NNE
Cosmos 1470 Rocket 4.1 23:40:37 43° W 23:40:57 44° WNW 23:45:07 10° N
Cosmos 1709 Rocket 4.0 23:38:52 44° S 23:41:03 90° NNE 23:47:27 10° N
NOSS 0 Rocket 4.0 23:35:07 10° NW 23:41:14 58° WSW 23:42:50 45° SSW
Cosmos 1302 Rocket 3.9 23:36:34 10° NNW 23:41:47 75° WSW 23:42:56 54° S
Cosmos 1743 3.8 23:44:29 33° ESE 23:44:56 35° E 23:48:26 10° NNE
Cosmos 1340 Rocket 2.7 23:45:18 70° W 23:45:19 70° WNW 23:49:15 10° N
APEX 4.3 23:44:43 44° SW 23:46:30 72° WNW 23:52:56 10° NNE
Cosmos 1933 Rocket 3.7 23:47:27 54° WSW 23:47:58 58° WNW 23:52:25 10° N
Timation 2 Rocket 4.4 23:46:19 35° SSE 23:48:16 47° ESE 23:54:03 10° NE
Cosmos 2219 3.3 23:46:58 45° S 23:48:39 66° ESE 23:54:22 10° NNE
Cosmos 1745 Rocket 4.5 23:46:52 35° SW 23:49:00 49° WNW 23:55:03 10° N
Helios 1A 2.8 23:50:54 69° SSW 23:51:18 76° WSW 23:55:33 10° NNW
Cosmos 1066 Rocket 4.3 23:45:52 10° N 23:51:46 85° E 23:54:12 38° SSE
Okean 3 3.5 23:48:30 10° N 23:52:49 73° E 23:53:41 54° SE
Okean 1-7 2.9 23:49:10 10° NNW 23:53:23 63° W 23:53:38 61° WSW
